Regional Weather Roundup
Issued by NWS

Home | Current Version | Previous Version | Text Only | Print | Product List | Glossary Off
Versions: 1 2 3 4 5 6 7 8 9 10 11 12 13 14 15 16 17 18 19 20 21 22 23 24 25 26 27 28 29 30 31 32 33 34 35 36 37 38 39 40 41 42 43 44 45 46 47 48 49 50

000
ASUS45 KBOU 030610
RWRCO

WEATHER ROUNDUP FOR COLORADO
NATIONAL WEATHER SERVICE DENVER/BOULDER CO
1200 AM MDT MON AUG 03 2015

NOTE: "FAIR" INDICATES FEW OR NO CLOUDS BELOW 12000 FEET WITH NO
SIGNIFICANT WEATHER AND/OR OBSTRUCTIONS TO VISIBILITY.

COZ001>005-013-030-031-030700-
...NORTHWEST COLORADO...

CITY           SKY/WX    TMP DP  RH WIND       PRES   REMARKS
CRAIG          CLOUDY    60  50  70 CALM      30.18S
HAYDEN         CLOUDY    61  52  72 CALM      30.20R
MEEKER         CLOUDY    62  51  67 VRB5      30.21F
MOUNT WERNER   NOT AVBL
STEAMBOAT SPGS CLOUDY    58  50  74 CALM      30.22S
WALDEN         CLOUDY    55  43  62 E7        30.31R
$$

COZ006>008-011-030700-
...WEST CENTRAL VALLEYS...

CITY           SKY/WX    TMP DP  RH WIND       PRES   REMARKS
GRAND JUNCTION CLOUDY    66  56  70 E9        30.10S
MONTROSE       CLOUDY    62  60  93 SE5       30.17F
EAGLE          CLOUDY    64  52  63 W3        30.25F
RIFLE          LGT RAIN  62  57  83 CALM      30.19F
DELTA          CLOUDY    66  58  77 CALM      30.14F
NUCLA          CLOUDY    63  59  88 NE5       30.20F
$$

COZ017>023-064>068-030700-
...SOUTHWEST COLORADO...

CITY           SKY/WX    TMP DP  RH WIND       PRES   REMARKS
DURANGO        LGT RAIN  59  56  89 E5        30.25F
CORTEZ         MOCLDY    64  60  87 CALM      30.18F
PAGOSA SPRINGS LGT RAIN  56  55  97 N5        30.33R
TELLURIDE      CLOUDY    52  51  94 CALM      30.38F
WOLF CREEK PAS NOT AVBL
$$

COZ009-010-012-014-032>034-037-058>063-030700-
...CENTRAL COLORADO...

CITY           SKY/WX    TMP DP  RH WIND       PRES   REMARKS
ASPEN          CLOUDY    56  53  90 S5        30.31F
BUENA VISTA    CLOUDY    55  52  89 W3        30.37F
COPPER MTN     CLOUDY    52  37  58 S15G22    30.60S
BERTHOUD PASS  MOCLDY    41  32  70 SE20      30.65R
COTTONWOOD PAS CLOUDY    52  46  82 SW6       30.48F
GUNNISON       CLOUDY    55  54  94 N5        30.35F
KREMMLING      CLOUDY    63  41  45 S5        30.28S
LEADVILLE      LGT RAIN  47  47 100 E5        30.47F
MONARCH PASS   DRIZZLE   43  41  93 E12       30.69F
SALIDA         NOT AVBL
SUNLIGHT       DRIZZLE   46  46 100 E5        30.51S
WILKERSON PASS CLOUDY    45  41  87 W5        30.58F
$$

COZ069>075-030700-
...SAN LUIS VALLEY/SANGRE DE CRISTO MOUNTAINS...

CITY           SKY/WX    TMP DP  RH WIND       PRES   REMARKS
ALAMOSA        LGT RAIN  58  53  84 CALM      30.32S
LA VETA PASS   CLOUDY    46  43  87 MISG      30.49R
SAGUACHE       CLOUDY    55  54  94 NW7       30.34F
$$

COZ035-036-038>040-030700-
...NORTHERN COLORADO FRONT RANGE...

CITY           SKY/WX    TMP DP  RH WIND       PRES   REMARKS
DENVER INTL AP CLOUDY    69  48  47 S6        30.10F
DMNS CITY PARK   N/A     71  50  46 SE7       30.08S
AURORA         MOCLDY    67  52  57 S9        30.12F
FRONT RANGE AP NOT AVBL
ERIE MUNI ARPT CLOUDY    73  48  41 S5        30.07S
BOULDER MUN AP CLOUDY    77  43  29 SW3       30.07S
CENTENNIAL     CLOUDY    68  49  50 SE6       30.14R
BROOMFIELD     CLOUDY    73  45  35 S9        30.11S
FORT COLLINS   CLOUDY    72  50  46 CALM      30.08R
LONGMONT       CLOUDY    70  54  57 CALM      30.08S
$$

COZ041-046-047-076>085-087-088-030700-
...PIKES PEAK/PALMER DIVIDE AND SOUTHERN FOOTHILLS...

CITY           SKY/WX    TMP DP  RH WIND       PRES   REMARKS
COLO. SPRINGS  CLOUDY    66  50  56 N5        30.18F
A. F. ACADEMY  CLOUDY    61  52  71 N5        30.20S
ELLICOTT       CLOUDY   N/A N/A N/A S8        30.17S
FALCON         CLOUDY    63  49  59 SE5       30.23S
FORT CARSON    CLOUDY    67  51  55 N8        30.14F
LIMON          MOCLDY    61  49  64 CALM      30.13S
MONUMENT HILL  NOT AVBL
TRINIDAD       CLOUDY    65  54  67 SW18      30.14S
$$

COZ042>045-048>051-090-091-030700-
...NORTHEAST COLORADO...

CITY           SKY/WX    TMP DP  RH WIND       PRES   REMARKS
GREELEY ARPT   MOCLDY    72  50  46 S8        30.06S
AKRON          PTCLDY    69  52  54 S9        30.07S
BURLINGTON     PTCLDY    70  58  65 S10       30.06S
WRAY           PTCLDY    73  54  50 S3        30.01F
STERLING       PTCLDY    70  55  60 S5        30.01S
HOLYOKE        PTCLDY    66  55  68 S6        30.01F
FORT MORGAN    PTCLDY    68  52  55 SE5       30.06S
$$

COZ086-089-092>099-030700-
...SOUTHEAST COLORADO...

CITY           SKY/WX    TMP DP  RH WIND       PRES   REMARKS
PUEBLO         CLOUDY    74  54  49 W5        30.06S
LA JUNTA       CLOUDY    75  54  47 CALM      30.05R
LAMAR          MOCLDY    73  60  63 E5        30.01R
SPRINGFIELD      N/A     69  62  78 E7        30.06R
$$



USA.gov is the U.S. government's official web portal to all federal, state and local government web resources and services.